EW1090 Weather Reports


Display with metric or nautical units.
time (UTC)temp
F
wind
direction
speed
MPH
gust
MPH
rain 1hr
in
rain 24hr
in
rain mn
in
humidity
%
barometer
mb
20201028223840 77 24 16.0 38.0 0.77 1.79 1.78 94 984.6
20201028223330 77 22 12.0 25.0 0.76 1.71 1.70 94 985.4
20201028222836 77 68 11.0 27.0 0.76 1.65 1.64 94 987.6
20201028222328 77 78 13.0 28.0 0.68 1.50 1.49 94 989.2
20201028221829 77 57 13.0 29.0 0.69 1.43 1.42 94 990.2
20201028221333 77 22 11.0 22.0 0.67 1.38 1.37 94 991.1
20201028220829 76 12 9.0 28.0 0.66 1.34 1.33 94 992.3
20201028220332 77 90 10.0 28.0 0.65 1.30 1.29 94 993.2
20201028215829 77 5 9.0 24.0 0.66 1.35 1.23 94 994.2
20201028215328 77 132 5.0 24.0 0.70 1.30 1.18 94 995.0
20201028214830 77 119 9.0 24.0 0.69 1.24 1.12 94 995.5
20201028214328 77 15 9.0 22.0 0.67 1.19 1.07 94 996.0
20201028213843 77 89 10.0 20.0 0.62 1.11 0.99 94 996.0
20201028213338 77 45 7.0 17.0 0.58 1.04 0.92 94 996.3
20201028212837 77 16 7.0 18.0 0.55 0.99 0.87 94 996.9
20201028212334 77 28 7.0 18.0 0.51 0.91 0.79 94 997.7
20201028211836 76 52 7.0 17.0 0.48 0.85 0.73 94 997.8
20201028211336 76 19 6.0 15.0 0.48 0.82 0.70 93 998.1
20201028210835 76 70 7.0 22.0 0.45 0.78 0.66 93 998.5
20201028210340 76 36 7.0 22.0 0.45 0.76 0.64 93 998.7
20201028205857 77 10 9.0 25.0 0.38 0.71 0.55 93 999.3
20201028205340 77 24 9.0 25.0 0.32 0.63 0.47 93 999.8
20201028204838 77 155 7.0 15.0 0.30 0.59 0.43 93 1000.2
20201028204337 77 5 6.0 19.0 0.27 0.55 0.39 93 1000.6
20201028203835 77 37 5.0 19.0 0.27 0.53 0.37 93 1000.9
20201028203339 77 103 4.0 14.0 0.25 0.50 0.34 93 1001.5
20201028202841 77 161 5.0 15.0 0.25 0.48 0.32 93 1001.8
20201028202321 77 23 7.0 15.0 0.22 0.43 0.27 93 1002.2
20201028201850 77 78 5.0 13.0 0.20 0.41 0.25 93 1002.2
20201028201342 77 88 3.0 14.0 0.18 0.38 0.22 93 1002.4
20201028200840 77 57 4.0 14.0 0.18 0.37 0.21 92 1002.6
20201028200324 78 120 4.0 16.0 0.17 0.35 0.19 93 1003.2
20201028195822 78 134 2.0 10.0 0.14 0.34 0.16 92 1003.2
20201028195325 78 30 3.0 11.0 0.13 0.32 0.15 92 1003.3
20201028194826 78 85 4.0 11.0 0.11 0.30 0.12 92 1003.7
20201028194327 79 165 4.0 11.0 0.11 0.30 0.12 92 1003.9
20201028193831 79 331 3.0 18.0 0.09 0.28 0.10 92 1004.3
20201028193333 79 111 2.0 18.0 0.08 0.26 0.08 92 1004.3
20201028192832 79 27 3.0 11.0 0.07 0.25 0.07 92 1004.5
20201028192333 79 5 3.0 12.0 0.05 0.23 0.05 91 1004.7
20201028191834 79 155 3.0 12.0 0.04 0.22 0.04 91 1004.9
20201028191335 80 355 4.0 17.0 0.04 0.22 0.04 91 1005.1
20201028190837 80 61 2.0 17.0 0.03 0.21 0.03 90 1005.3
20201028190336 80 158 3.0 11.0 0.02 0.20 0.02 90 1005.5
20201028185836 80 76 3.0 11.0 0.02 0.20 0.02 90 1005.6
20201028185338 80 49 3.0 11.0 0.01 0.19 0.01 90 1005.8
20201028184837 81 81 2.0 9.0 0.01 0.19 0.01 89 1006.1
20201028184339 81 119 3.0 9.0 0.01 0.19 0.01 89 1006.2
20201028183838 81 132 2.0 9.0 0.00 0.18 0.00 89 1006.5
20201028183326 81 136 2.0 13.0 0.00 0.18 0.00 89 1006.5
20201028182825 81 86 3.0 13.0 0.00 0.18 0.00 89 1006.7
20201028182328 81 69 4.0 12.0 0.00 0.18 0.00 89 1006.7
20201028181829 81 51 2.0 12.0 0.00 0.18 0.00 89 1007.1
20201028181329 81 102 4.0 16.0 0.00 0.18 0.00 89 1007.1
20201028180828 81 90 4.0 16.0 0.00 0.18 0.00 89 1007.4
20201028180333 81 32 3.0 10.0 0.00 0.18 0.00 89 1007.3
20201028175831 81 107 3.0 10.0 0.00 0.18 0.00 89 1007.6
20201028175333 81 161 3.0 14.0 0.00 0.18 0.00 89 1007.8
20201028174832 81 123 2.0 14.0 0.00 0.18 0.00 89 1007.8
20201028174333 81 360 3.0 11.0 0.00 0.18 0.00 89 1007.9
20201028173838 81 158 3.0 11.0 0.00 0.18 0.00 89 1008.0
20201028173340 81 98 4.0 12.0 0.00 0.18 0.00 90 1008.2
20201028172840 81 211 3.0 12.0 0.00 0.18 0.00 90 1008.4
20201028172338 81 51 4.0 12.0 0.00 0.18 0.00 90 1008.6
20201028171851 81 155 2.0 15.0 0.00 0.18 0.00 90 1008.8
20201028171337 80 119 3.0 15.0 0.00 0.18 0.00 91 1009.0
20201028170839 80 150 4.0 11.0 0.00 0.18 0.00 91 1009.2
20201028170342 80 67 3.0 15.0 0.00 0.18 0.00 91 1009.3
20201028165849 80 128 5.0 15.0 0.00 0.18 0.00 91 1009.5
20201028165346 80 77 2.0 17.0 0.00 0.18 0.00 91 1009.7
20201028164858 80 144 4.0 17.0 0.00 0.18 0.00 91 1009.7
20201028164340 80 94 2.0 10.0 0.00 0.18 0.00 91 1009.8
20201028163849 80 360 6.0 10.0 0.00 0.18 0.00 91 1009.9
20201028163347 80 185 4.0 10.0 0.00 0.18 0.00 91 1010.1
20201028162825 80 169 3.0 10.0 0.00 0.18 0.00 91 1010.1
20201028162328 80 123 2.0 11.0 0.00 0.18 0.00 91 1010.2
20201028161839 80 162 3.0 11.0 0.00 0.18 0.00 91 1010.3
20201028161335 80 80 3.0 8.0 0.00 0.18 0.00 91 1010.3
20201028160828 80 86 3.0 9.0 0.00 0.18 0.00 91 1010.4
20201028160330 80 92 4.0 9.0 0.00 0.18 0.00 92 1010.4
20201028155830 80 165 3.0 10.0 0.00 0.18 0.00 92 1010.4
20201028155330 80 42 2.0 10.0 0.00 0.18 0.00 92 1010.4
20201028154831 80 126 2.0 8.0 0.00 0.18 0.00 92 1010.5
20201028154332 80 67 2.0 8.0 0.00 0.18 0.00 92 1010.6
20201028153836 80 137 2.0 7.0 0.00 0.18 0.00 92 1010.7
20201028153342 80 130 3.0 9.0 0.00 0.18 0.00 92 1010.7
20201028152834 80 161 3.0 9.0 0.00 0.18 0.00 92 1010.7
20201028152343 80 63 1.0 7.0 0.00 0.18 0.00 92 1010.8
20201028151845 80 138 2.0 8.0 0.00 0.18 0.00 91 1010.9
20201028151331 80 182 2.0 8.0 0.00 0.18 0.00 91 1010.9
20201028150821 80 137 3.0 8.0 0.00 0.18 0.00 91 1011.0
20201028150323 80 34 4.0 9.0 0.00 0.18 0.00 91 1011.0
20201028145826 80 50 2.0 8.0 0.00 0.18 0.00 91 1010.9
20201028145336 80 12 2.0 9.0 0.00 0.18 0.00 91 1010.9
20201028144833 80 192 4.0 7.0 0.00 0.18 0.00 90 1011.1
20201028144336 80 86 1.0 8.0 0.00 0.18 0.00 90 1011.0
20201028143835 80 66 3.0 8.0 0.00 0.18 0.00 90 1011.0
20201028143328 80 182 3.0 7.0 0.00 0.18 0.00 90 1011.0
20201028142832 80 132 3.0 12.0 0.00 0.18 0.00 90 1010.9
20201028142332 80 140 4.0 12.0 0.00 0.18 0.00 90 1011.0
20201028141840 80 159 2.0 8.0 0.00 0.18 0.00 90 1010.9
20201028141334 80 103 2.0 11.0 0.00 0.18 0.00 91 1010.9
20201028140835 80 111 2.0 11.0 0.00 0.18 0.00 91 1011.0
20201028140340 80 115 4.0 8.0 0.00 0.18 0.00 91 1011.0
20201028135836 80 46 3.0 8.0 0.00 0.18 0.00 91 1011.0
20201028135341 80 121 3.0 9.0 0.00 0.18 0.00 91 1010.9
20201028134841 80 103 3.0 9.0 0.00 0.18 0.00 91 1011.0
20201028134345 80 113 4.0 9.0 0.00 0.18 0.00 91 1010.9
20201028133841 80 173 3.0 9.0 0.00 0.18 0.00 91 1011.0
20201028133343 80 119 3.0 9.0 0.00 0.18 0.00 91 1010.9
20201028132825 80 77 2.0 8.0 0.00 0.18 0.00 91 1010.9
20201028132329 80 26 1.0 11.0 0.00 0.18 0.00 92 1010.9
20201028131833 79 59 3.0 11.0 0.00 0.18 0.00 92 1010.9
20201028131339 79 61 2.0 13.0 0.00 0.18 0.00 92 1010.8
20201028130831 79 138 1.0 13.0 0.00 0.18 0.00 92 1010.8
20201028130334 79 111 2.0 9.0 0.00 0.18 0.00 92 1010.9
20201028125831 79 152 2.0 7.0 0.00 0.18 0.00 92 1010.9
20201028125333 79 80 1.0 8.0 0.00 0.18 0.00 93 1010.8
20201028124836 79 109 2.0 8.0 0.00 0.18 0.00 93 1010.9
20201028124336 79 58 1.0 7.0 0.00 0.18 0.00 93 1010.9
20201028123845 79 123 2.0 7.0 0.00 0.18 0.00 93 1010.9
20201028123340 79 127 2.0 7.0 0.00 0.18 0.00 93 1010.9
20201028122900 79 122 1.0 9.0 0.00 0.18 0.00 93 1010.8
20201028122321 79 166 1.0 9.0 0.00 0.18 0.00 93 1010.8
20201028121827 79 149 1.0 9.0 0.00 0.18 0.00 93 1010.8
20201028121324 79 118 2.0 9.0 0.00 0.18 0.00 93 1010.9
20201028120825 79 101 1.0 7.0 0.00 0.18 0.00 93 1010.8
20201028120333 79 55 3.0 10.0 0.00 0.18 0.00 93 1010.8
20201028115828 79 148 3.0 10.0 0.00 0.18 0.00 93 1010.8
20201028115326 79 110 2.0 9.0 0.00 0.18 0.00 93 1010.8
20201028114828 79 131 3.0 8.0 0.00 0.18 0.00 93 1010.9
20201028114326 79 55 2.0 5.0 0.00 0.18 0.00 93 1010.8
20201028113826 79 67 1.0 7.0 0.00 0.18 0.00 93 1010.9
20201028113328 79 176 2.0 7.0 0.00 0.18 0.00 93 1010.9
20201028112834 79 173 1.0 7.0 0.00 0.18 0.00 93 1010.9
20201028112330 78 61 1.0 5.0 0.00 0.18 0.00 93 1010.9
20201028111839 78 146 1.0 4.0 0.00 0.18 0.00 93 1011.0
20201028111333 78 144 1.0 4.0 0.00 0.18 0.00 93 1011.1
20201028110834 78 78 0.0 3.0 0.00 0.18 0.00 93 1011.0
20201028110334 78 76 1.0 6.0 0.00 0.18 0.00 93 1010.9
20201028105835 78 54 1.0 10.0 0.00 0.18 0.00 93 1010.8
20201028105339 78 51 1.0 10.0 0.00 0.18 0.00 93 1010.8
20201028104836 78 144 2.0 5.0 0.00 0.18 0.00 93 1010.8
20201028104335 78 17 1.0 9.0 0.00 0.18 0.00 93 1010.8
20201028103843 78 132 2.0 9.0 0.00 0.18 0.00 93 1010.7
20201028103341 78 155 2.0 8.0 0.00 0.18 0.00 93 1010.7
20201028102845 78 59 0.0 6.0 0.00 0.18 0.00 94 1010.6
20201028102353 78 65 1.0 4.0 0.00 0.18 0.00 94 1010.6
20201028101823 78 99 1.0 5.0 0.00 0.18 0.00 94 1010.6
20201028101329 78 109 0.0 5.0 0.00 0.18 0.00 94 1010.7
20201028100823 77 67 2.0 6.0 0.00 0.18 0.00 94 1010.7
20201028100324 77 123 0.0 5.0 0.00 0.18 0.00 94 1010.7
20201028095825 77 142 0.0 5.0 0.00 0.18 0.00 94 1010.8
20201028095328 77 138 1.0 5.0 0.00 0.18 0.00 94 1010.8
20201028094826 77 127 0.0 6.0 0.00 0.18 0.00 94 1010.9
20201028094330 77 54 0.0 3.0 0.00 0.18 0.00 94 1011.0
20201028093830 77 57 0.0 2.0 0.00 0.18 0.00 94 1011.0
20201028093327 77 123 0.0 4.0 0.00 0.18 0.00 94 1011.0
20201028092825 77 126 0.0 6.0 0.00 0.18 0.00 94 1011.1
20201028092324 77 108 1.0 6.0 0.00 0.18 0.00 94 1011.1
20201028091827 77 131 0.0 4.0 0.00 0.18 0.00 93 1011.2
20201028091330 77 150 1.0 4.0 0.00 0.18 0.00 93 1011.1
20201028090829 77 128 0.0 4.0 0.00 0.18 0.00 93 1011.2
20201028090334 77 96 1.0 4.0 0.00 0.18 0.00 93 1011.1
20201028085829 77 92 0.0 7.0 0.00 0.18 0.00 93 1011.2
20201028085331 77 55 1.0 6.0 0.00 0.18 0.00 93 1011.4
20201028084829 77 161 1.0 4.0 0.00 0.18 0.00 93 1011.5
20201028084336 77 94 0.0 3.0 0.00 0.18 0.00 93 1011.6
20201028083830 77 67 0.0 5.0 0.00 0.18 0.00 93 1011.7
20201028083332 77 86 0.0 5.0 0.00 0.18 0.00 93 1011.8
20201028082831 77 86 0.0 5.0 0.00 0.18 0.00 93 1011.9
20201028082330 77 90 0.0 5.0 0.00 0.18 0.00 93 1012.0
20201028081831 77 66 0.0 3.0 0.00 0.18 0.00 93 1012.1
20201028081331 77 63 0.0 4.0 0.00 0.18 0.00 93 1012.2
20201028080838 77 70 1.0 5.0 0.00 0.18 0.00 93 1012.3
20201028080341 77 48 0.0 5.0 0.00 0.18 0.00 93 1012.4
20201028075839 77 78 1.0 5.0 0.00 0.18 0.00 93 1012.6
20201028075341 77 50 0.0 5.0 0.00 0.18 0.00 93 1012.7
20201028074838 77 57 0.0 3.0 0.00 0.18 0.00 93 1012.7
20201028074336 77 66 0.0 5.0 0.00 0.18 0.00 93 1012.8
20201028073839 77 50 1.0 5.0 0.00 0.18 0.00 93 1012.8
20201028073341 77 84 1.0 3.0 0.00 0.18 0.00 93 1012.7
20201028072839 77 63 0.0 4.0 0.00 0.18 0.00 93 1012.7
20201028072339 77 82 1.0 3.0 0.00 0.18 0.00 93 1012.8
20201028071840 77 79 0.0 3.0 0.00 0.18 0.00 93 1012.7
20201028071338 77 66 0.0 2.0 0.00 0.18 0.00 93 1012.8
20201028070838 77 61 0.0 3.0 0.00 0.18 0.00 93 1012.8
20201028070328 77 101 0.0 3.0 0.00 0.18 0.00 93 1012.8
20201028065850 77 74 0.0 2.0 0.00 0.18 0.00 93 1012.8
20201028065322 77 74 0.0 3.0 0.00 0.18 0.00 93 1012.8
20201028064846 76 58 1.0 3.0 0.00 0.18 0.00 93 1012.7
20201028064325 77 95 0.0 2.0 0.00 0.18 0.00 93 1012.7
20201028063826 76 57 0.0 2.0 0.00 0.18 0.00 93 1012.8
20201028063340 76 78 0.0 2.0 0.00 0.18 0.00 93 1012.8
20201028062824 76 64 1.0 3.0 0.00 0.18 0.00 93 1012.8
20201028062327 76 64 0.0 2.0 0.00 0.18 0.00 93 1012.9
20201028061826 76 69 0.0 2.0 0.00 0.18 0.00 93 1012.9
20201028061330 76 69 0.0 2.0 0.00 0.18 0.00 93 1013.0
20201028060835 76 74 0.0 3.0 0.00 0.18 0.00 93 1013.1
20201028060335 76 69 0.0 3.0 0.00 0.18 0.00 93 1013.2
20201028055831 76 56 0.0 4.0 0.00 0.18 0.00 93 1013.2
20201028055331 76 61 1.0 4.0 0.00 0.18 0.00 92 1013.1
20201028054831 76 81 0.0 3.0 0.00 0.18 0.00 92 1013.1
20201028054332 76 76 0.0 2.0 0.00 0.18 0.00 92 1013.2
20201028053831 76 73 0.0 2.0 0.00 0.18 0.00 92 1013.2
20201028053334 77 74 1.0 2.0 0.00 0.18 0.00 92 1013.2
20201028052832 77 65 0.0 2.0 0.00 0.18 0.00 92 1013.2
20201028052333 77 192 0.0 3.0 0.00 0.18 0.00 92 1013.2
20201028051837 77 62 0.0 4.0 0.00 0.18 0.00 92 1013.2
20201028051334 77 57 1.0 4.0 0.00 0.18 0.00 92 1013.3
20201028050835 77 62 0.0 2.0 0.00 0.18 0.00 92 1013.4
20201028050345 77 192 0.0 2.0 0.00 0.18 0.00 92 1013.5
20201028045839 77 57 0.0 4.0 0.00 0.18 0.18 92 1013.5
20201028045339 77 69 0.0 4.0 0.00 0.18 0.18 92 1013.6
20201028044840 77 67 0.0 2.0 0.00 0.18 0.18 92 1013.6
20201028044340 77 51 0.0 3.0 0.00 0.18 0.18 92 1013.6
20201028043840 77 42 0.0 3.0 0.00 0.18 0.18 92 1013.7
20201028043344 77 84 1.0 3.0 0.00 0.18 0.18 93 1013.8
20201028042840 77 157 1.0 3.0 0.00 0.18 0.18 93 1013.7
20201028042342 77 22 1.0 5.0 0.00 0.18 0.18 93 1013.7
20201028041841 77 126 1.0 6.0 0.00 0.18 0.18 93 1013.8
20201028041343 77 18 1.0 3.0 0.00 0.18 0.18 93 1013.8
20201028040824 77 105 0.0 4.0 0.00 0.18 0.18 93 1013.8
20201028040348 77 144 1.0 5.0 0.00 0.18 0.18 93 1013.9
20201028035827 78 171 1.0 5.0 0.00 0.18 0.18 93 1014.0
20201028035328 78 141 2.0 3.0 0.00 0.18 0.18 93 1014.0
20201028034828 78 135 0.0 3.0 0.00 0.18 0.18 93 1014.0
20201028034330 78 138 0.0 4.0 0.00 0.18 0.18 93 1013.9
20201028033829 78 167 1.0 4.0 0.00 0.18 0.18 93 1013.8
20201028033337 79 103 0.0 3.0 0.00 0.18 0.18 93 1013.8
20201028032837 79 63 0.0 5.0 0.00 0.18 0.18 93 1013.7
20201028032333 79 72 1.0 5.0 0.00 0.18 0.18 93 1013.8
20201028031843 79 72 1.0 5.0 0.00 0.18 0.18 93 1013.8
20201028031337 79 22 1.0 5.0 0.00 0.18 0.18 93 1013.7
20201028030833 79 80 1.0 4.0 0.00 0.18 0.18 93 1013.8
20201028030334 79 59 1.0 4.0 0.00 0.18 0.18 93 1013.8
20201028025832 79 53 1.0 4.0 0.00 0.18 0.18 93 1013.9
20201028025340 79 57 0.0 2.0 0.00 0.18 0.18 93 1014.0
20201028024844 79 53 0.0 2.0 0.00 0.18 0.18 93 1014.0
20201028024336 79 106 0.0 4.0 0.00 0.18 0.18 93 1013.9
20201028023836 79 144 1.0 4.0 0.00 0.18 0.18 93 1013.9
20201028023339 79 53 0.0 4.0 0.00 0.18 0.18 93 1013.9
20201028022839 79 123 0.0 3.0 0.00 0.18 0.18 93 1013.9
20201028022353 79 59 0.0 4.0 0.00 0.18 0.18 93 1013.9
20201028021850 79 100 0.0 4.0 0.00 0.18 0.18 93 1013.8
20201028021336 79 66 0.0 3.0 0.00 0.18 0.18 93 1013.8
20201028020837 79 150 0.0 3.0 0.00 0.18 0.18 93 1013.8
20201028020341 79 146 1.0 3.0 0.00 0.18 0.18 93 1013.8